Wind_Speed
3 6 7 6 6 5 5 8 11 10 7 8 4 1 3 6 6 7 9 9 10 10 11 11 12 12 13 13 13 12 12 14 16 16 16 17 17 17 17 18 18 18 17
3 8 5 5 7 7 6 6 7 9 11 9 3 4 6 8 8 8 8 9 10 11 11 12 13 13 13 13 12 12 14 14 15 15 16 15 16 17 17 17 18 19 20
2 5 5 8 8 7 11 13 11 14 12 8 6 8 9 9 8 8 8 10 11 11 12 13 13 13 12 11 12 12 13 13 15 15 16 17 17 17 18 19 19 20 22
3 7 6 7 9 13 14 14 12 10 9 9 10 9 8 8 8 7 9 10 11 13 12 12 12 11 11 10 12 13 14 14 14 14 15 15 16 17 18 18 20 21 22
3 6 7 9 12 15 14 13 9 10 9 9 9 7 6 8 6 8 9 10 12 12 12 10 10 10 10 11 11 12 12 13 13 15 16 17 16 16 18 20 22 23 23
3 7 10 14 14 15 15 11 9 9 8 7 6 6 5 6 5 7 8 11 11 11 10 9 9 9 9 9 11 12 12 13 14 15 14 14 16 18 20 21 23 24 25
5 9 13 17 18 15 12 10 9 8 6 5 5 3 4 4 5 7 9 10 10 9 9 8 7 7 8 9 10 11 12 12 12 13 14 16 18 20 21 22 24 26 28
8 10 13 18 18 15 13 11 8 6 3 2 2 1 2 3 5 8 10 10 9 8 7 6 6 6 7 8 9 10 10 10 11 13 16 18 19 20 22 24 25 26 29
11 9 11 13 12 12 14 13 9 6 4 2 1 0 2 4 6 9 10 8 7 5 3 4 4 4 6 7 8 9 9 10 13 16 17 18 20 22 23 24 25 28 30
12 12 11 11 14 14 14 13 11 8 5 3 2 3 3 5 7 9 8 6 4 2 1 2 2 3 5 6 7 7 9 12 14 16 17 19 21 21 22 24 27 29 32
15 14 12 10 10 12 14 14 13 11 9 7 6 6 7 7 8 9 7 5 2 1 1 1 2 4 6 6 7 8 10 12 13 15 16 18 20 22 24 26 28 31 33
13 15 14 10 11 12 15 16 14 12 10 9 8 9 10 9 10 10 8 6 4 3 3 3 4 5 7 8 9 10 11 11 12 14 16 18 20 22 24 26 27 30 32
11 12 11 12 10 9 10 12 14 13 11 10 11 12 13 12 12 11 8 5 4 5 6 7 8 8 10 10 10 11 11 11 13 14 16 17 20 22 24 26 28 32 36
14 12 13 13 13 12 11 11 12 13 11 12 12 13 14 14 13 11 8 6 7 8 9 10 11 11 12 13 13 13 13 13 14 15 16 20 24 26 29 32 35 38 41
17 15 13 13 12 12 12 12 11 12 12 11 12 14 14 14 13 11 9 9 11 12 13 14 15 16 17 18 18 18 18 18 18 19 20 23 27 31 34 36 40 43 43
18 19 16 16 13 14 14 12 10 11 12 10 11 13 14 15 13 12 12 13 14 15 17 17 18 19 20 21 22 22 22 23 23 23 25 27 31 34 37 40 42 43 45
16 17 18 17 16 13 14 15 14 12 12 13 13 14 15 15 16 17 17 16 18 19 21 21 22 23 23 25 26 26 26 27 27 29 30 32 35 37 40 42 44 45 48
14 16 16 18 18 17 15 14 14 15 14 14 16 17 17 19 20 20 20 20 22 23 24 24 26 27 27 28 29 29 29 30 31 32 33 34 37 39 42 45 47 48 50
14 15 17 17 17 17 16 15 14 15 16 18 19 19 20 22 23 23 23 23 26 26 28 28 29 30 31 31 31 32 32 33 33 34 36 38 40 42 45 48 51 51 52
17 15 16 18 17 17 16 16 17 18 19 19 21 22 22 24 25 26 26 27 28 29 30 30 32 33 34 34 34 35 35 35 36 37 38 40 43 45 47 49 51 51 52
20 18 18 17 19 19 20 21 21 21 21 20 20 20 22 26 28 29 29 30 30 33 33 33 35 36 36 36 35 36 37 37 38 39 41 43 45 47 50 52 52 52 53
24 22 20 19 20 20 22 23 23 23 23 24 24 25 27 29 30 32 31 32 34 35 35 36 38 39 39 38 38 39 40 40 42 43 43 45 47 49 50 51 52 53 55
26 26 25 24 24 22 23 24 24 24 25 27 28 29 31 30 32 32 34 35 36 37 37 38 40 40 40 41 41 41 43 43 44 46 47 48 50 51 51 51 52 54 56
30 30 29 28 27 26 26 26 27 27 27 30 32 32 33 32 35 36 37 39 40 39 40 41 43 43 43 43 43 44 45 47 47 48 49 50 51 52 52 51 53 55 57
34 33 32 33 32 31 30 31 31 31 31 33 34 34 34 36 38 40 42 44 44 43 44 45 45 45 45 45 45 46 48 50 51 53 52 52 52 52 51 51 54 57 58
32 34 34 36 35 37 36 36 35 35 36 36 38 37 37 41 41 42 46 46 46 46 47 48 49 48 47 47 48 49 50 52 53 54 56 55 54 52 51 51 55 58 60
Wind_Direction
204 170 179 187 190 147 170 182 198 211 186 182 172 198 153 125 104 82 73 66 65 71 78 74 71 72 66 62 59 58 53 52 51 48 46 42 37 32 26 22 16 11 8
163 150 204 180 174 184 203 184 186 189 189 176 170 143 148 117 99 82 74 76 77 79 76 75 75 69 65 63 58 55 56 54 50 45 41 36 28 22 18 12 8 4 1
117 136 159 174 172 172 149 140 125 133 154 156 153 137 121 102 83 72 76 77 80 77 81 81 75 72 67 65 64 58 54 48 42 34 30 26 20 16 12 10 8 7 6
124 133 154 163 150 152 150 137 135 144 158 148 140 129 109 92 74 74 82 85 83 86 84 82 78 73 70 63 55 48 43 37 33 30 26 22 19 17 14 12 10 8 5
141 140 158 147 149 155 157 155 150 149 154 146 138 112 91 79 73 86 87 85 92 91 92 84 79 72 62 54 47 41 35 31 27 26 23 20 17 16 12 10 8 4 0
126 140 153 140 151 159 161 155 159 156 165 153 124 99 91 76 89 97 98 99 97 94 87 77 66 59 54 44 38 35 32 29 26 24 21 17 15 13 10 9 4 360 355
131 144 147 142 147 153 156 141 151 151 152 159 126 107 100 103 118 109 112 107 96 91 84 75 63 49 42 38 36 31 29 26 22 19 15 14 13 10 6 3 359 355 351
145 157 157 151 155 154 157 156 161 170 181 146 117 95 108 127 130 126 117 104 96 89 84 74 58 44 40 36 29 27 24 19 14 12 12 9 8 3 358 355 351 347 342
175 179 177 177 173 170 175 173 174 168 177 156 19 341 192 168 153 133 122 116 111 96 81 69 59 42 37 31 21 16 11 7 8 9 6 3 360 355 348 345 343 341 339
190 182 204 188 186 183 187 190 181 186 195 174 200 238 206 191 159 144 140 135 124 112 63 47 40 21 15 12 7 360 359 4 6 4 359 357 354 348 343 342 341 338 339
198 191 197 222 226 210 201 206 207 204 209 205 202 209 206 193 172 162 162 164 166 222 256 317 340 342 347 347 342 343 352 358 360 355 353 352 349 345 341 340 339 338 336
207 216 210 212 242 234 227 218 221 213 214 221 215 213 204 195 186 183 189 199 216 244 272 295 305 311 318 322 327 331 340 348 348 344 347 345 343 340 337 336 334 333 331
222 217 206 205 195 225 222 220 222 218 217 218 216 212 210 202 200 204 214 226 268 286 298 307 311 312 308 309 314 324 328 331 332 333 333 329 329 327 326 324 323 322 322
225 223 217 217 221 210 226 234 235 231 220 209 211 214 219 217 213 218 235 265 292 308 308 306 304 299 301 305 312 315 313 314 317 316 316 314 315 316 317 317 317 316 317
243 238 228 230 242 257 241 242 251 251 226 219 215 219 232 230 230 235 251 277 294 297 300 301 300 301 303 307 310 310 307 306 307 308 305 304 306 308 308 309 310 314 315
239 245 244 245 250 260 274 267 248 232 228 228 235 240 242 237 243 252 265 274 287 295 297 299 300 300 302 305 308 307 304 304 303 302 302 303 303 307 309 310 312 313 314
251 249 246 251 254 264 268 275 278 251 231 230 229 243 254 247 249 255 264 274 284 291 296 299 299 300 303 306 305 306 305 304 303 302 302 304 306 308 308 309 310 311 314
248 249 251 250 253 259 259 264 265 269 261 249 245 242 237 240 248 255 265 275 283 290 297 299 298 300 302 305 304 305 306 305 305 306 306 307 310 312 311 312 312 313 314
245 248 251 252 255 258 262 260 257 261 260 262 259 252 248 245 250 260 268 278 286 293 298 297 298 300 302 304 303 304 304 305 306 307 308 309 310 311 312 312 313 313 315
249 247 256 258 256 254 257 256 256 254 253 256 263 264 264 259 260 264 270 276 284 291 294 294 297 299 302 303 303 303 304 305 306 306 307 309 311 311 311 311 311 313 314
252 251 253 258 262 262 254 253 250 252 258 258 258 262 263 265 264 267 272 279 287 291 293 295 296 298 298 299 300 301 303 304 305 306 309 310 311 311 310 310 311 312 314
255 256 255 254 257 257 258 255 257 258 261 260 260 259 259 261 264 268 274 280 284 288 289 292 295 297 298 299 300 301 301 304 306 307 308 310 310 309 309 309 309 312 314
258 260 258 256 256 259 260 262 263 265 265 267 265 267 269 267 267 269 274 277 282 285 287 289 291 295 298 300 300 301 302 303 304 307 307 308 309 308 307 306 307 310 312
259 256 259 260 262 263 265 268 266 266 269 269 271 273 274 272 271 273 277 280 282 283 284 287 291 294 297 298 300 301 301 302 303 304 305 307 308 308 307 304 305 309 313
252 260 260 261 261 263 264 265 266 268 267 268 270 271 272 273 274 277 279 282 284 283 284 286 289 292 295 298 299 300 301 301 302 303 305 306 307 306 304 302 304 307 313
248 253 255 262 263 265 265 265 265 265 268 269 271 272 272 272 272 273 276 278 280 281 282 286 289 291 293 295 297 298 299 299 300 302 304 304 306 305 303 301 303 307 311
Height
5866 5868 5869 5871 5872 5873 5873 5875 5875 5876 5878 5879 5881 5883 5884 5884 5885 5886 5885 5885 5885 5885 5884 5884 5884 5884 5883 5883 5882 5882 5881 5881 5880 5878 5877 5876 5875 5873 5872 5870 5869 5868 5866
5865 5867 5870 5871 5871 5872 5873 5875 5875 5875 5878 5880 5882 5884 5885 5886 5886 5886 5886 5886 5886 5886 5885 5885 5885 5885 5884 5884 5884 5884 5883 5882 5881 5879 5877 5876 5876 5874 5873 5872 5870 5868 5867
5866 5868 5869 5870 5871 5873 5875 5876 5876 5878 5880 5881 5883 5885 5887 5887 5887 5887 5887 5887 5887 5886 5886 5886 5886 5886 5886 5886 5886 5885 5884 5883 5881 5879 5878 5878 5876 5875 5874 5872 5871 5870 5868
5867 5867 5869 5870 5872 5874 5876 5877 5878 5880 5882 5883 5885 5887 5888 5888 5888 5888 5887 5887 5887 5887 5887 5887 5887 5887 5887 5887 5886 5886 5884 5883 5882 5880 5879 5878 5877 5875 5874 5872 5870 5868 5867
5868 5869 5870 5871 5873 5875 5877 5879 5880 5881 5884 5886 5887 5888 5889 5889 5889 5889 5888 5888 5888 5889 5888 5889 5889 5889 5888 5887 5886 5885 5884 5883 5882 5881 5880 5878 5877 5875 5873 5872 5870 5868 5866
5871 5870 5870 5871 5875 5877 5879 5880 5882 5883 5885 5887 5888 5889 5890 5890 5890 5890 5890 5890 5890 5890 5890 5890 5890 5889 5889 5887 5887 5886 5885 5884 5882 5881 5880 5878 5877 5875 5873 5872 5870 5868 5865
5872 5872 5872 5873 5875 5878 5880 5881 5883 5885 5887 5888 5889 5890 5890 5890 5891 5891 5891 5891 5892 5891 5891 5891 5890 5890 5889 5889 5887 5886 5885 5884 5883 5881 5880 5878 5876 5874 5873 5871 5869 5866 5863
5873 5874 5875 5875 5876 5878 5880 5882 5884 5887 5888 5890 5890 5890 5891 5892 5892 5891 5892 5892 5892 5891 5891 5891 5891 5890 5889 5888 5887 5887 5885 5884 5882 5881 5879 5878 5876 5874 5872 5870 5867 5864 5862
5874 5876 5877 5877 5878 5879 5881 5882 5884 5887 5888 5889 5890 5891 5892 5892 5892 5891 5892 5892 5892 5891 5891 5891 5891 5890 5889 5888 5887 5886 5885 5883 5882 5880 5878 5877 5875 5873 5870 5867 5865 5862 5860
5874 5874 5878 5879 5879 5880 5882 5883 5884 5885 5888 5888 5890 5891 5892 5892 5892 5892 5892 5892 5892 5892 5892 5891 5890 5889 5888 5887 5887 5885 5884 5882 5881 5879 5877 5875 5873 5871 5868 5865 5863 5860 5857
5874 5875 5877 5880 5881 5882 5882 5883 5884 5884 5886 5887 5888 5890 5891 5892 5892 5892 5892 5891 5891 5891 5890 5889 5889 5888 5888 5887 5886 5884 5882 5881 5879 5877 5876 5873 5871 5869 5866 5863 5860 5857 5854
5873 5876 5877 5877 5880 5882 5883 5883 5883 5884 5884 5886 5888 5889 5890 5891 5891 5890 5890 5890 5890 5889 5889 5888 5888 5887 5886 5885 5884 5882 5881 5879 5877 5876 5874 5871 5869 5867 5864 5861 5858 5854 5850
5874 5874 5876 5876 5877 5881 5882 5883 5883 5883 5883 5885 5886 5888 5890 5889 5889 5889 5889 5889 5889 5889 5889 5888 5887 5886 5885 5884 5882 5880 5879 5877 5876 5873 5871 5869 5867 5864 5861 5858 5854 5850 5845
5871 5873 5874 5876 5877 5878 5880 5881 5883 5883 5883 5884 5885 5887 5889 5889 5889 5888 5889 5890 5889 5889 5888 5887 5886 5885 5883 5881 5880 5878 5876 5874 5873 5870 5868 5866 5863 5860 5857 5853 5849 5845 5840
5870 5872 5873 5875 5877 5878 5879 5880 5881 5882 5883 5884 5885 5886 5888 5889 5889 5889 5889 5889 5888 5887 5886 5885 5883 5882 5880 5879 5877 5876 5874 5871 5869 5868 5865 5862 5859 5856 5853 5848 5844 5839 5834
5868 5870 5872 5874 5875 5877 5879 5880 5879 5880 5882 5883 5885 5886 5886 5887 5888 5888 5888 5887 5887 5885 5884 5882 5881 5879 5877 5876 5874 5872 5870 5868 5865 5864 5861 5858 5855 5851 5847 5843 5838 5832 5827
5866 5868 5869 5872 5873 5875 5877 5878 5880 5880 5880 5881 5881 5883 5885 5886 5886 5886 5886 5885 5884 5883 5882 5880 5878 5876 5874 5873 5871 5869 5866 5864 5862 5859 5857 5854 5849 5845 5841 5836 5830 5825 5820
5863 5866 5866 5868 5870 5872 5873 5875 5877 5878 5880 5880 5880 5880 5880 5881 5883 5883 5883 5883 5882 5881 5879 5877 5875 5873 5871 5870 5867 5865 5862 5859 5856 5854 5851 5848 5844 5839 5833 5828 5824 5818 5813
5860 5862 5864 5865 5867 5869 5871 5872 5874 5875 5876 5878 5878 5878 5878 5878 5879 5879 5879 5879 5878 5877 5876 5873 5870 5868 5867 5864 5862 5860 5857 5854 5850 5847 5844 5840 5835 5831 5827 5821 5816 5811 5806
5857 5859 5860 5862 5863 5865 5868 5869 5870 5871 5872 5874 5875 5876 5876 5876 5875 5875 5874 5873 5873 5871 5870 5868 5866 5863 5861 5859 5856 5854 5850 5847 5844 5841 5837 5833 5828 5824 5820 5815 5808 5802 5797
5854 5855 5855 5857 5859 5862 5863 5864 5864 5866 5868 5869 5870 5872 5873 5872 5871 5870 5870 5870 5869 5867 5865 5863 5860 5857 5855 5853 5850 5848 5844 5840 5837 5834 5830 5826 5821 5815 5810 5805 5800 5794 5788
5851 5852 5852 5853 5854 5856 5859 5859 5861 5862 5864 5865 5866 5866 5866 5865 5866 5865 5864 5864 5863 5861 5860 5857 5855 5852 5850 5846 5844 5841 5837 5834 5830 5826 5822 5818 5814 5808 5802 5796 5791 5786 5780
5848 5849 5849 5850 5850 5853 5854 5856 5857 5858 5859 5860 5860 5860 5860 5861 5860 5859 5858 5857 5855 5854 5853 5851 5848 5846 5843 5840 5836 5834 5831 5826 5822 5818 5813 5809 5804 5800 5794 5788 5783 5778 5772
5841 5843 5844 5846 5846 5848 5849 5851 5852 5853 5854 5855 5854 5854 5855 5856 5855 5854 5853 5851 5849 5847 5846 5844 5841 5839 5836 5833 5829 5826 5822 5819 5814 5810 5804 5800 5795 5790 5786 5780 5775 5770 5763
5832 5836 5839 5840 5841 5842 5844 5845 5846 5848 5848 5847 5847 5848 5847 5848 5848 5847 5846 5845 5843 5841 5839 5836 5833 5830 5828 5825 5821 5818 5813 5810 5805 5802 5796 5792 5786 5781 5775 5771 5765 5760 5754
5824 5828 5831 5834 5836 5836 5837 5838 5839 5840 5840 5840 5841 5841 5842 5840 5839 5839 5836 5835 5834 5832 5830 5828 5826 5823 5819 5816 5812 5809 5805 5801 5796 5791 5786 5782 5777 5771 5766 5761 5755 5750 5744